Wind_Speed
7 7 7 7 7 6 6 7 6 6 6 6 6 6 6 6 6 6 6 6 6 6 6 5 6 6 6 6 7 7 7 8 9 11 11 10 10 11 11 11 11 11 10
7 7 7 6 6 6 6 7 7 6 6 6 7 7 7 7 6 6 6 6 6 6 6 6 7 7 7 7 8 8 8 8 9 10 10 10 11 11 11 11 11 11 11
7 6 6 6 6 5 5 6 7 7 7 6 6 6 7 7 7 7 7 7 8 8 8 8 8 8 8 9 9 9 9 9 9 9 10 12 12 12 12 12 12 12 12
7 7 6 6 6 6 7 6 7 7 7 7 7 7 7 7 7 7 8 8 9 9 9 9 9 9 9 9 9 10 10 10 10 11 11 12 13 13 13 13 13 13 13
8 8 8 7 7 7 7 8 8 8 8 8 8 8 8 8 8 8 8 8 9 10 10 10 10 10 10 9 10 10 11 11 12 12 12 12 13 13 13 13 14 14 14
9 9 9 8 8 8 7 8 9 9 9 9 9 9 8 8 9 9 9 9 9 9 10 11 11 11 11 11 12 11 11 12 13 13 13 13 14 14 15 16 15 15 16
10 10 10 9 9 8 8 8 9 9 9 10 10 10 10 10 10 10 11 10 10 10 10 11 12 13 13 13 14 14 13 14 14 14 14 15 16 16 16 17 17 17 17
10 10 11 10 9 9 9 9 9 9 9 10 10 11 11 11 11 11 11 11 11 11 11 12 13 14 14 14 15 15 15 15 16 16 16 16 17 17 17 17 18 18 19
11 10 11 11 10 10 10 10 10 10 11 11 11 11 11 11 11 11 12 12 12 12 13 13 14 14 15 15 15 16 16 16 15 16 17 17 18 19 19 18 18 18 19
12 12 11 11 11 11 11 11 11 12 12 12 12 12 12 12 12 12 13 13 14 14 14 14 14 15 15 15 15 16 16 16 17 17 17 17 18 19 19 19 18 19 20
12 12 13 13 12 12 12 12 13 13 14 14 13 13 13 13 13 13 13 14 14 15 15 15 15 15 15 15 15 16 16 17 17 18 17 17 18 19 20 20 20 21 22
13 13 13 14 13 13 14 14 14 15 15 14 14 14 15 15 14 14 14 15 15 15 16 16 16 16 16 16 16 17 17 17 17 17 18 18 18 19 20 20 21 21 22
14 14 15 15 14 15 15 15 15 16 16 15 15 15 15 15 15 16 16 16 16 17 17 17 17 17 17 17 17 17 17 17 17 17 18 18 18 19 20 20 20 20 21
15 16 16 16 16 16 16 16 16 16 16 16 16 16 16 17 17 17 17 17 18 18 19 19 19 18 18 18 17 18 18 18 18 18 18 19 19 20 21 21 21 21 21
16 16 16 16 16 17 17 17 18 17 17 17 17 17 17 18 18 18 19 19 19 19 19 19 20 20 19 19 19 19 20 20 19 19 20 20 20 21 22 22 22 23 23
18 17 17 17 17 19 19 18 18 18 18 18 18 19 19 18 19 19 19 20 20 21 20 20 20 21 21 20 20 20 20 21 21 21 21 22 22 22 22 23 23 24 24
19 19 18 18 18 19 20 20 19 19 19 19 20 20 20 20 19 20 19 20 20 21 21 20 20 20 20 21 21 21 21 21 21 21 21 21 22 23 24 24 24 25 25
20 21 20 20 20 20 20 20 20 20 20 20 20 20 20 20 21 21 20 20 21 21 21 21 21 22 22 22 22 22 23 23 23 23 23 23 23 23 24 24 25 25 26
22 22 22 22 21 21 21 21 21 21 21 21 21 21 21 21 21 21 21 20 21 21 23 23 23 23 23 23 23 23 23 24 24 24 24 24 24 25 25 26 26 26 26
23 23 23 23 23 23 23 23 23 23 22 22 22 22 22 21 21 21 21 21 21 22 23 23 23 23 23 24 24 24 25 25 24 25 25 25 25 26 26 26 26 26 26
25 25 25 24 25 25 25 24 24 24 24 23 23 23 22 22 22 21 21 22 23 23 23 24 23 23 23 23 24 25 26 26 25 25 26 26 26 26 27 27 27 27 27
26 25 25 25 24 25 25 25 25 25 25 24 24 24 24 23 23 23 23 23 23 24 24 24 24 24 23 24 24 25 25 25 25 26 26 26 26 27 27 27 28 28 28
27 26 26 25 25 25 26 26 27 26 25 24 24 24 24 24 24 24 25 25 25 25 25 25 25 25 24 24 25 26 26 26 26 26 26 27 27 26 27 28 28 28 29
26 26 26 25 25 25 25 25 26 26 25 26 26 26 25 25 26 26 26 26 26 26 26 26 26 26 26 26 25 26 26 26 26 26 26 26 26 27 27 28 28 28 28
27 26 26 25 25 26 26 26 26 26 26 27 27 27 26 26 27 27 27 27 27 27 27 26 27 27 27 27 26 26 26 26 26 25 25 25 26 27 27 28 28 28 28
26 26 26 25 25 26 26 27 27 26 26 27 27 27 27 27 27 28 28 28 27 27 27 27 28 28 28 28 27 26 26 26 26 26 26 26 27 27 27 28 28 28 28
Wind_Direction
294 292 288 283 282 272 262 257 257 261 263 269 272 265 265 268 267 270 271 264 256 256 257 267 272 271 255 256 259 257 256 251 246 245 246 248 248 246 249 250 250 249 249
300 293 288 286 286 275 259 256 258 262 268 271 272 266 261 263 266 267 271 264 255 257 262 272 272 269 264 262 261 262 261 255 249 245 247 248 249 248 249 251 250 251 252
300 297 293 283 274 264 259 255 256 257 261 268 270 270 264 265 266 265 268 267 261 258 261 263 264 267 265 266 265 266 262 261 254 249 251 247 246 249 250 251 250 248 251
297 295 288 282 276 264 254 256 256 259 265 271 274 276 269 264 267 266 265 264 263 260 258 259 263 266 267 266 263 261 260 257 257 256 256 252 247 247 249 249 250 246 248
291 289 282 275 274 272 263 259 259 264 269 273 274 279 273 264 265 265 266 265 265 262 260 261 262 263 267 268 265 262 256 255 256 257 257 253 250 250 249 250 252 252 249
287 283 278 275 269 266 264 263 264 267 268 273 273 275 273 269 269 268 266 266 267 267 267 268 267 266 264 264 264 265 261 260 259 257 256 255 253 253 254 253 255 254 252
285 277 275 273 268 265 266 267 265 269 270 274 275 276 275 276 273 270 269 267 270 270 268 269 270 272 270 266 266 263 264 264 266 262 258 256 254 254 258 257 257 257 256
287 275 275 275 271 266 267 270 270 274 273 277 278 275 276 279 275 268 268 267 271 272 272 273 274 275 277 273 270 265 266 265 266 265 261 260 259 255 257 257 259 258 256
287 277 272 274 272 268 266 271 275 275 278 278 280 281 277 275 273 268 266 268 271 271 271 273 275 278 277 275 273 271 268 265 266 264 262 260 260 261 260 259 260 260 259
285 275 272 271 272 269 266 268 275 280 282 280 281 282 281 276 271 269 269 268 268 269 270 273 276 277 277 277 275 271 268 268 268 267 268 265 260 259 259 260 261 261 262
280 274 271 271 274 270 270 274 277 279 281 279 279 280 281 275 272 270 269 270 269 269 270 273 275 275 276 276 276 273 271 272 271 270 271 269 265 261 261 263 264 265 265
276 273 271 269 270 271 272 275 278 278 279 277 275 276 278 276 271 271 271 271 271 271 271 271 271 272 274 276 276 275 274 274 271 269 271 271 268 263 262 264 266 265 267
278 276 274 270 271 273 273 275 277 279 279 275 275 275 275 274 273 273 272 271 271 272 273 273 273 272 275 277 277 277 276 276 275 274 274 273 269 266 264 264 266 266 266
276 276 276 272 270 272 274 276 277 276 275 274 274 275 274 273 273 272 272 272 273 273 274 275 275 274 274 277 277 277 277 277 277 277 276 275 271 269 268 267 267 267 267
276 277 278 275 271 272 275 277 277 274 272 273 274 275 275 275 274 273 273 272 272 273 274 276 275 273 272 272 274 275 276 276 277 277 277 276 272 271 271 269 269 269 268
276 277 276 276 275 275 275 276 276 272 271 273 275 274 274 274 275 275 274 273 273 274 275 278 276 272 270 270 270 271 274 275 276 276 276 276 274 271 271 270 270 270 267
276 276 274 273 274 275 275 274 273 272 272 273 274 274 273 273 275 275 273 273 273 274 274 275 274 274 273 272 271 271 273 274 276 277 277 276 274 272 272 272 271 271 269
277 276 274 272 272 273 274 272 271 272 273 274 275 275 274 273 274 275 273 273 273 273 273 275 274 274 273 274 272 272 273 275 276 277 276 275 274 273 273 273 273 271 269
279 277 276 274 273 273 273 271 270 272 272 272 273 275 275 273 272 274 274 274 274 274 275 274 274 274 274 274 273 274 273 275 276 277 276 276 275 274 273 274 273 271 270
278 279 277 273 272 272 272 270 269 270 271 271 272 273 273 272 271 272 274 274 275 276 277 275 275 275 276 274 273 272 274 275 275 275 276 275 274 274 274 274 274 272 271
276 276 276 275 272 272 272 270 268 268 268 269 271 271 271 271 270 271 273 275 277 277 278 278 275 275 275 275 274 273 275 275 274 275 275 276 276 275 274 274 273 273 273
275 275 276 277 274 272 271 268 267 267 267 268 269 270 270 271 272 273 274 275 277 278 279 279 277 276 276 276 275 275 276 275 275 274 274 276 277 277 276 276 275 275 273
275 275 274 276 274 273 271 267 266 268 268 267 267 267 268 269 271 274 275 276 278 279 278 279 279 278 277 277 276 277 277 277 276 275 275 277 278 278 278 278 277 275 274
273 273 274 273 272 272 272 270 267 267 267 266 266 265 266 268 269 273 275 276 278 279 279 278 277 276 276 276 277 278 278 278 277 276 276 276 277 279 280 279 279 277 275
273 272 271 272 272 270 270 269 268 267 266 266 265 265 266 268 269 271 274 275 276 277 277 277 278 276 275 275 277 278 278 277 277 276 276 277 279 279 279 280 279 278 276
273 272 271 270 270 269 269 269 269 268 266 265 265 265 267 269 270 271 272 273 273 275 275 276 277 277 276 276 276 277 278 278 279 278 277 279 281 281 281 281 279 277 276
Height
5868 5867 5867 5866 5865 5865 5865 5865 5865 5865 5866 5866 5865 5865 5865 5866 5866 5866 5866 5866 5866 5866 5865 5865 5865 5865 5866 5866 5866 5867 5867 5867 5867 5868 5868 5868 5869 5869 5869 5870 5870 5871 5871
5866 5866 5865 5864 5864 5864 5864 5864 5864 5864 5864 5864 5864 5864 5864 5864 5864 5864 5864 5864 5864 5864 5864 5864 5864 5864 5864 5864 5865 5865 5865 5865 5865 5865 5865 5866 5866 5866 5867 5867 5868 5868 5868
5864 5864 5864 5863 5862 5862 5862 5862 5862 5862 5862 5863 5862 5862 5862 5862 5862 5862 5862 5862 5862 5862 5862 5862 5862 5862 5862 5862 5862 5862 5862 5862 5862 5863 5863 5863 5863 5863 5864 5864 5864 5865 5865
5862 5862 5862 5861 5861 5860 5861 5861 5861 5861 5861 5861 5860 5860 5860 5860 5860 5860 5860 5860 5860 5860 5860 5860 5860 5860 5859 5859 5859 5859 5859 5859 5860 5860 5860 5860 5860 5860 5860 5861 5861 5862 5862
5860 5860 5859 5859 5859 5859 5859 5859 5859 5859 5859 5859 5858 5858 5858 5858 5857 5857 5858 5858 5858 5857 5857 5858 5858 5858 5857 5857 5856 5856 5856 5856 5856 5856 5857 5857 5857 5857 5857 5857 5857 5858 5858
5858 5857 5856 5856 5856 5856 5856 5857 5857 5857 5856 5856 5856 5856 5856 5855 5855 5855 5855 5855 5855 5855 5855 5855 5855 5855 5854 5854 5853 5853 5853 5853 5853 5853 5853 5853 5853 5853 5853 5853 5854 5854 5854
5855 5854 5854 5853 5853 5854 5854 5854 5854 5854 5854 5854 5853 5853 5853 5853 5853 5852 5852 5852 5852 5852 5852 5852 5851 5851 5850 5850 5850 5849 5849 5849 5849 5849 5849 5849 5849 5849 5849 5849 5849 5850 5850
5851 5851 5851 5850 5851 5851 5851 5851 5851 5851 5851 5851 5850 5850 5850 5850 5849 5849 5849 5849 5849 5849 5849 5848 5848 5847 5847 5846 5846 5845 5845 5845 5845 5845 5845 5845 5845 5845 5845 5845 5845 5845 5846
5848 5848 5847 5848 5848 5848 5848 5848 5848 5848 5848 5848 5847 5847 5847 5846 5846 5846 5845 5845 5845 5845 5845 5844 5844 5843 5843 5842 5842 5842 5841 5841 5840 5840 5840 5840 5840 5840 5840 5840 5840 5840 5841
5845 5844 5844 5844 5844 5844 5844 5845 5845 5845 5845 5844 5844 5843 5843 5843 5843 5842 5842 5842 5841 5841 5840 5840 5840 5839 5839 5838 5838 5837 5837 5836 5836 5836 5836 5835 5835 5835 5835 5835 5835 5835 5835
5841 5841 5841 5841 5841 5841 5841 5841 5841 5841 5841 5841 5840 5840 5839 5839 5839 5838 5838 5838 5837 5837 5837 5836 5836 5835 5834 5834 5834 5833 5832 5832 5831 5831 5831 5830 5830 5829 5829 5830 5830 5830 5830
5838 5837 5837 5837 5837 5837 5837 5837 5837 5837 5836 5836 5836 5835 5835 5834 5834 5834 5834 5833 5833 5833 5832 5832 5831 5831 5830 5830 5829 5829 5828 5827 5827 5826 5826 5825 5825 5824 5824 5824 5824 5824 5824
5834 5833 5833 5833 5833 5833 5833 5833 5832 5832 5832 5831 5831 5831 5830 5830 5829 5829 5829 5829 5828 5828 5828 5827 5827 5826 5826 5825 5824 5824 5823 5823 5822 5821 5821 5820 5819 5819 5819 5819 5819 5819 5819
5829 5829 5829 5828 5828 5828 5828 5828 5828 5827 5827 5827 5826 5826 5825 5825 5824 5824 5824 5824 5823 5823 5822 5822 5822 5821 5821 5820 5819 5819 5818 5818 5817 5816 5815 5815 5814 5814 5814 5813 5813 5813 5813
5825 5825 5824 5824 5823 5823 5823 5823 5823 5822 5822 5822 5821 5821 5820 5819 5819 5819 5818 5818 5818 5818 5817 5817 5816 5816 5815 5814 5814 5813 5813 5812 5811 5811 5810 5809 5809 5809 5808 5808 5808 5807 5807
5820 5820 5819 5819 5819 5818 5818 5817 5817 5817 5816 5816 5815 5815 5814 5814 5813 5812 5812 5812 5811 5811 5811 5811 5810 5809 5809 5809 5808 5808 5807 5806 5806 5805 5804 5803 5803 5802 5802 5802 5801 5801 5801
5815 5815 5814 5814 5813 5813 5812 5811 5811 5811 5810 5810 5810 5809 5808 5807 5807 5807 5806 5805 5805 5805 5804 5804 5804 5803 5803 5802 5802 5802 5801 5800 5799 5798 5798 5797 5796 5796 5795 5795 5794 5794 5794
5809 5809 5808 5808 5807 5807 5806 5806 5805 5805 5804 5804 5803 5802 5802 5801 5801 5801 5800 5799 5799 5798 5798 5798 5797 5797 5796 5796 5795 5795 5794 5794 5793 5792 5791 5790 5790 5789 5788 5788 5787 5787 5786
5803 5802 5802 5801 5801 5800 5800 5799 5799 5799 5798 5798 5797 5797 5796 5795 5795 5794 5794 5793 5793 5792 5791 5791 5790 5790 5789 5788 5788 5787 5787 5786 5785 5785 5784 5783 5782 5782 5781 5781 5780 5780 5779
5795 5795 5794 5794 5794 5793 5793 5792 5792 5792 5791 5791 5790 5790 5789 5789 5788 5788 5787 5787 5786 5785 5784 5784 5783 5782 5782 5781 5780 5780 5779 5778 5778 5777 5776 5775 5775 5774 5773 5773 5773 5772 5771
5788 5787 5787 5786 5786 5786 5785 5784 5784 5784 5784 5784 5783 5783 5782 5782 5781 5781 5780 5780 5779 5778 5777 5776 5775 5775 5774 5773 5772 5772 5771 5770 5770 5769 5768 5768 5767 5767 5766 5765 5764 5764 5763
5780 5779 5778 5778 5778 5777 5777 5776 5776 5776 5776 5776 5776 5775 5775 5774 5774 5774 5773 5772 5772 5771 5770 5769 5768 5767 5767 5766 5765 5764 5763 5763 5762 5761 5760 5760 5759 5758 5757 5757 5756 5755 5754
5771 5771 5770 5769 5769 5768 5768 5768 5768 5768 5768 5768 5768 5767 5767 5766 5766 5766 5765 5764 5764 5763 5762 5761 5761 5759 5759 5758 5757 5757 5756 5755 5754 5753 5752 5752 5751 5750 5749 5748 5747 5747 5746
5763 5762 5761 5761 5760 5760 5760 5760 5759 5759 5759 5759 5759 5759 5759 5758 5758 5758 5757 5757 5756 5755 5754 5753 5752 5752 5751 5750 5749 5748 5747 5746 5746 5744 5744 5743 5742 5742 5741 5740 5739 5738 5737
5754 5753 5753 5752 5752 5752 5751 5751 5751 5751 5751 5751 5751 5751 5750 5750 5750 5750 5749 5749 5748 5747 5746 5745 5744 5743 5742 5742 5741 5740 5739 5738 5737 5736 5735 5735 5734 5733 5732 5731 5730 5729 5728
5745 5745 5744 5744 5744 5743 5743 5743 5743 5742 5742 5742 5742 5742 5742 5742 5742 5741 5741 5740 5740 5739 5738 5737 5736 5735 5734 5733 5733 5732 5731 5730 5728 5728 5726 5725 5724 5723 5723 5722 5720 5719 5719